Regional Weather Roundup
Issued by NWS Pendleton, OR

Home | Current Version | Previous Version | Text Only | Print | Product List | Glossary On
Versions: 1 2 3 4 5 6 7 8 9 10 11 12 13 14 15 16 17 18 19 20 21 22 23 24 25 26 27 28 29 30 31 32 33 34 35 36 37 38 39 40 41 42 43 44 45 46 47 48 49 50
000
ASUS46 KPDT 060525
RWRPDT
PENDLETON REGIONAL WEATHER ROUNDUP
NATIONAL WEATHER SERVICE PENDLETON OREGON
1000 PM PDT TUE MAY 5 2015

NOTE: FAIR INDICATES FEW OR NO CLOUDS BELOW 12,000 FEET WITH NO
SIGNIFICANT WEATHER AND/OR OBSTRUCTIONS TO VISIBILITY.

# INDICATES UNOFFICIAL STATION AND DATA

WAZ520-060610-
EAST SLOPES OF WASHINGTON CASCADES

CITY            SKY/WX      TMP DP  RH  WIND    PRES   REMARKS
#BULLFROG 2SW   N/A         37  32  82  W3      27.63S
#BUMPING DAM    N/A         36  N/A N/A CALM    N/A
#CLE ELUM HS    N/A         42  33  70  W3      29.98R
#CLE ELUM LAKE  N/A         37  33  85  CALM    30.02R
#CLIFFDEL 2NW   N/A         38  30  73  N1      N/A
#GLENWOOD       N/A         41  35  79  CALM    30.03R
#MANASTASH CYN  N/A         39  26  59  CALM    29.97S
#NELSON         N/A         42  35  76  CALM    30.06R
#NELSON 3SW     N/A         36  31  82  CALM    30.25R
#NILE           N/A         39  30  70  CALM    29.30R
#RONALD 2NW     N/A         41  26  55  N1      29.89R
#SNOWDEN        N/A         36  25  64  CALM    N/A
#TEANAWAY 4NE   N/A         40  32  73  E2      N/A
#TROUT LAKE 1NE N/A         39  35  85  W1      30.06R
$$

WAZ521-060610-
SIMCOE HIGHLANDS

CITY            SKY/WX      TMP DP  RH  WIND    PRES   REMARKS
#BICKLETON HS   N/A         38  21  50  N7      N/A
#CENTERVILLE 4W N/A         44  34  68  CALM    29.78R
#CENTERVILLE 1SWN/A         40  32  73  W7      30.02R
#GOLDENDALE     N/A         47  33  58  W7      N/A
#GOLDENDALE 1NE N/A         45  22  40  CALM    N/A
#GOLDENDALE 5WNWN/A         43  33  67  W3      30.02R
#GOODNOE HILLS  N/A         46  33  60  NW12    N/A    WCI 40
#LYLE 6NE       N/A         44  38  79  CALM    30.01R
$$

WAZ026-060610-
KITTITAS VALLEY

CITY            SKY/WX      TMP DP  RH  WIND    PRES   REMARKS
ELLENSBURG AP   PTCLDY      45  33  63  NW16    30.00R WCI 38
YTC-OPS AREA    CLEAR       38  30  73  W26G33  29.93  WCI 27
#ELLENSBURG CWU N/A         44  33  65  NW7     29.95R
#ELLENSBURG 3NE N/A         43  34  70  W7      30.00S
#ELLENSBURG 1E  N/A         44  29  55  NW1     N/A
#KITTITAS 4N    N/A         43  33  67  N9      28.30S
#KITTITAS 3S    N/A         44  35  70  NW5     29.98R
#THORP 6N       N/A         41  33  73  NW13    30.03R WCI 34
$$

WAZ027-060610-
YAKIMA VALLEY

CITY            SKY/WX      TMP DP  RH  WIND    PRES   REMARKS
SUNNYSIDE AP    CLEAR       42  32  67  CALM    30.01R
YAKIMA AIRPORT  PTCLDY      50  30  46  NW10    30.01
#DONALD 2NE     N/A         49  22  34  N2      28.86R
#GRANDVIEW      N/A         50  31  48  CALM    30.01R
#MABTON         N/A         50  34  54  W2      30.01R
#NACHES 2SW     N/A         46  32  58  W10     29.99S
#OUTLOOK DOT    N/A         N/A N/A N/A W8      N/A
#SELAH 8E       N/A         45  24  43  W9      N/A
#TERRACE HTS    N/A         48  29  47  N7      29.96R
#TOPPENISH      N/A         51  30  44  NW1     29.92R
#WAPATO 4NE     N/A         49  22  34  N2      28.86R
#WEST VALLEY    N/A         49  31  50  CALM    29.99R
#W YAKIMA       N/A         48  32  54  SW2     30.00R
#WHITE SWAN 5E  N/A         47  33  58  W5      30.01R
$$

WAZ028-060610-
LOWER COLUMBIA BASIN...WASHINGTON

CITY            SKY/WX      TMP DP  RH  WIND    PRES   REMARKS
HANFORD         MOCLEAR     53  26  35  W16G24  29.95R
PASCO           PTCLDY      53  31  43  NW12    30.00
RICHLAND AWOS   PTCLDY      52  32  46  CALM    30.00R
#BASIN CITY 5SW N/A         49  33  54  W7      29.99R
#BENTON CITY    N/A         50  34  54  W6      29.90R
#CONNELL 5N     N/A         49  27  42  NW1     29.96R
#CONNELL 5NW    N/A         48  32  54  W3      29.92R
#ELTOPIA 6NW    N/A         51  30  44  W10     28.95R
#KAHLOTUS       N/A         53  27  36  NW14    29.96R
#KENNEWICK      N/A         37  32  82  W3      27.63S
#KENNEWICK 3S   N/A         50  34  54  CALM    29.99R
#PATERSON       N/A         51  33  50  NW2     29.98R
#PROSSER        N/A         51  30  44  W3      29.99R
#SAGEMOOR 2W    N/A         50  33  52  W6      29.83R
#TOUCHET 2S     N/A         51  38  61  W1      29.97R
#WEST PASCO     N/A         55  30  38  NW5     30.00R
$$

WAZ029-060610-
FOOTHILLS OF THE BLUES...WASHINGTON

CITY            SKY/WX      TMP DP  RH  WIND    PRES   REMARKS
WALLA WALLA AP  MOCLDY      54  31  41  S7      29.99R
#DAYTON SCHOOL  N/A         50  27  41  W1      30.00R
#LOWDEN 2SE     N/A         52  36  54  CALM    29.96R
#PLEASANT VIEW 1N/A         53  27  36  W12     29.99R
#PRESCOTT       N/A         53  32  45  CALM    29.96R
#SUDBURY        N/A         49  N/A N/A CALM    N/A
#WHITMAN COLLEGEN/A         56  35  45  E2      30.03R
#WAITSBURG 5S   N/A         49  32  52  S1      30.07R
#WAITSBURG 8N   N/A         48   7  18  NE1     29.82S
#WALLA WALLA 5E N/A         52  33  48  S7      N/A
#WALLA WALLA U  N/A         57  35  43  CALM    29.98R
#WHITMAN MISSIONN/A         55  35  47  CALM    29.99R
$$

WAZ030-060610-
BLUE MOUNTAINS...WASHINGTON

CITY            SKY/WX      TMP DP  RH  WIND    PRES   REMARKS
#DIXIE 5SE      N/A         46  26  45  SW3     29.93R
$$

ORZ009-041-WAZ024-060610-
COLUMBIA RIVER GORGE

CITY            SKY/WX      TMP DP  RH  WIND    PRES   REMARKS
HOOD RIVER AP   PTCLDY      46  41  83  CALM    30.07S
THE DALLES AP   CLEAR       50  39  66  NW7     30.06R
#ARLINGTON AIRPON/A         50  36  58  W14     27.04
#ARLINGTON HS   N/A         54  36  50  NW6     29.94R
#CELILO DOT     N/A         53  37  54  SW5     N/A
#MOSIER 1S      N/A         48  33  56  W3      30.03S
#MURDOCK        N/A         52  42  69  NW9     30.07R
#RUFUS DOT      N/A         54  36  50  W10     N/A

$$

ORZ510-060610-
NORTH CENTRAL OREGON

CITY            SKY/WX      TMP DP  RH  WIND    PRES   REMARKS
#CHENOWITH 1W   N/A         43  38  82  W22     N/A    WCI 34
#COW CYN RST AREN/A         43  30  60  NW7     N/A
#DUFUR 9E       N/A         42  37  82  W10     30.10R
#GRASS VALLEY 1SN/A         42  35  76  N7      30.06S
#KENT DOT       N/A         40  32  73  NW7     N/A
#MAUPIN SCHOOL  N/A         50  37  61  CALM    30.07R
#MORO SCHOOL    N/A         44  39  82  W7      30.05R
#SHANIKO 5WSW   N/A         40  29  64  NW12    N/A    WCI 33
#SHANIKO 4NW    N/A         38  32  79  NW12    30.02S WCI 30
#TYGH VALLEY 2NEN/A         49  38  66  N3      30.03R
#WAPANITIA AIRPON/A         45  37  73  W7      30.04R
#WASCO DOT      N/A         46  38  73  SW2     N/A
#WASCO AIRPORT  N/A         44  37  76  W3      N/A
#WASCO 5NE      N/A         39  33  79  CALM    30.04R
$$

ORZ511-060610-
CENTRAL OREGON

CITY            SKY/WX      TMP DP  RH  WIND    PRES   REMARKS
BEND AIRPORT    CLEAR       43  25  49  N7      30.03R
MADRAS AIRPORT  CLEAR       41  32  70  N8      30.05R
PRINEVILLE AP   CLEAR       41  30  65  N7      30.02R
REDMOND AIRPORT CLEAR       43  27  53  N6      30.03
#BEND 1SW       N/A         39  28  64  CALM    N/A
#BEND-AWBREY    N/A         43  29  57  N3      30.02R
#BEND-KIM LN    N/A         43  29  57  CALM    29.99R
#CROOKED RVR RANN/A         45  33  63  CALM    30.02R
#CULVER         N/A         43  33  67  E1      30.00R
#LAKE BILLY CHINN/A         46  10  23  CALM    30.12R
#POWELL BUTTE 3EN/A         42  29  60  NW6     N/A
#POWELL BUTTE   N/A         41  28  59  SW2     29.66R
#PRINEVILLE 3N  N/A         43  33  67  N5      29.99R
#WARM SPRINGS   N/A         49  35  58  CALM    30.01R

$$


ORZ509-060610-
EAST SLOPES OF OREGON CASCADES

CITY            SKY/WX      TMP DP  RH  WIND    PRES   REMARKS
#BLUE BOX PASS  N/A         36  -14 11  CALM    N/A
#CAMP SHERMAN   N/A         40  27  59  CALM    30.06R
#LA PINE 4NW    N/A         36  25  64  CALM    30.08R
#SISTERS AIRPOR N/A         43  34  70  N2      30.17S
#SISTERS ODOT   N/A         45  N/A N/A SW3     N/A
#SISTERS 1NW    N/A         44  27  51  N6      N/A
#SISTERS 3N     N/A         42  25  51  W2      30.04S
#SUNRIVER       N/A         39  27  62  CALM    29.88R
#TUMALO 3W      N/A         42  28  57  N7      29.91R
#WANOGA BUTTE D N/A         33  22  63  W5      N/A

$$

ORZ044-060610-
LOWER COLUMBIA BASIN...OREGON

CITY            SKY/WX      TMP DP  RH  WIND    PRES   REMARKS
HERMISTON       PTCLDY      51  33  50  SW10    30.01
#BOARDMAN SCHOOLN/A         54  35  48  S1      30.03R
#BOARDMAN 8SW   N/A         50  37  61  SW7     30.02R
#ECHO 8SW       N/A         52  32  46  CALM    30.02R
#IONE SCHOOL    N/A         50  34  54  S5      30.01R
#IRRIGON 4NW    N/A         51  39  63  SW5     N/A
#UMATILLA SCHOOLN/A         51  40  66  CALM    30.06R
#UMATILLA       N/A         62  34  35  W7      29.92R
$$

ORZ507-060610-
NORTHERN FOOTHILLS OF THE BLUES

CITY            SKY/WX      TMP DP  RH  WIND    PRES   REMARKS
PENDLETON AIRPT CLOUDY      51  31  46  W16     29.99
#ADAMS 3WNW     N/A         49  33  54  W7      30.00R
#ATHENA         N/A         50  34  54  CALM    30.01R
#CAYUSE         N/A         51  33  50  W6      30.00R
#HELIX SCHOOL   N/A         49  32  52  W5      29.98R
#HELIX 3N       N/A         46  30  53  N7      29.96R
#HELIX 6SW      N/A         49  32  52  W7      30.00R
#HOLDMAN 6E     N/A         48  32  54  E1      29.81R
#M-F FERNDALE   N/A         54  34  47  CALM    29.98R
#M-F GROVE ELEM N/A         53  31  43  SW1     29.98R
#M-FREEWATER 5SEN/A         54  34  47  S6      30.00R
#PENDLETON DNTN N/A         56  27  33  NW2     29.99S
#PDT AQUATIC CTRN/A         55  28  35  W7      30.01S
#PENDLETON 5NE  N/A         50  34  54  CALM    29.97R
#PDT SUNRIDGE   N/A         53  32  45  W5      30.02R
#PENDLETON 7NW  N/A         52  34  50  W12     29.98R
#PILOT ROCK     N/A         48  30  49  S2      30.04R
#TUTUILLA       N/A         51  33  50  W6      30.01R
#UMAPINE 2E     N/A         49  37  63  CALM    29.96R
#WESTON SCHOOL  N/A         49  29  46  W7      30.00R

$$

ORZ508-060610-
SOUTHERN FOOTHILLS OF THE BLUES

CITY            SKY/WX      TMP DP  RH  WIND    PRES   REMARKS
LEXINGTON       PTCLDY      48  34  58  SW8     30.06R
#AJAX           N/A         45  30  55  W1      29.98R
#CONDON SCHOOL  N/A         42  34  73  CALM    29.99R
#CONDON 5W      N/A         38  31  76  NW10    29.99R
#FOSSIL SCHOOL  N/A         46  33  60  NE7     30.00R
#HEPPNER EOC    N/A         47  33  58  W1      29.97R
#HEPPNER 4NE    N/A         44  33  65  W6      30.03R
#LEXINGTON 2SE  N/A         50  35  56  W3      30.01R
#MIKKALO        N/A         46  34  63  NW5     30.04R
#OLEX 4N        N/A         48  36  63  SW13    30.01R WCI 43
#RUGGS 5NE      N/A         44  31  60  W7      30.20S
#RUGGS 2SW      N/A         44  33  65  NW2     30.06R

$$

ORZ502-503-060610-
BLUE MOUNTAINS

CITY            SKY/WX      TMP DP  RH  WIND    PRES   REMARKS
MEACHAM         PTCLDY      38  28  67  CALM    30.01
#BATTLE MTN DOT N/A         39  36  89  N1      N/A
#HEPPNER 15SE   N/A         37  31  79  CALM    29.93R
#LADD CYN SMT   N/A         41  19  41  NW6     N/A
#LADD CREEK ODOTN/A         40  28  62  CALM    N/A
#LONG CREEK HS  N/A         43  36  76  CALM    29.96R
#N POWDER DOT   N/A         41  27  57  NW8     N/A
#PIKES PEAK     N/A         45  29  53  SW10    27.99S
#TOLLGATE       N/A         36  28  72  S2      29.92S
#TROY SCHOOL    N/A         49  30  48  W1      29.81R
#UKIAH          N/A         42  31  65  NW1     30.06R
#WESTON 4E      N/A         44  31  60  S1      29.95R
$$

ORZ505-060610-
JOHN DAY BASIN

CITY            SKY/WX      TMP DP  RH  WIND    PRES   REMARKS
JOHN DAY        CLEAR       46  28  49  SW3     29.99R
#JOHN DAY KJDY  N/A         50  22  33  W2      30.02R
#DAYVILLE SCHOOLN/A         52  32  46  NW3     29.96R
#MITCHELL       N/A         48  33  56  NW2     30.15R
#MONUMENT HS    N/A         49  38  66  NW8     30.01R
#MT. VERNON 5SE N/A         45  27  49  W2      29.93R
#WINLOCK        N/A         44  31  60  E5      30.09R
$$

ORZ506-060610-
OCHOCO AND JOHN DAY HIGHLANDS

CITY            SKY/WX      TMP DP  RH  WIND    PRES   REMARKS
#BUCK CREEK DOT N/A         45  45  100 NW5     N/A
#HORSE RIDGE DO N/A         41  23  48  NW8     N/A
#KEYES SMT DOT  N/A         42  26  53  N6      N/A
#PAULINA SCHOOL N/A         47  27  45  N2      29.96R
#PINE MTN OBS   N/A         31  23  72  NW7     N/A
#PRAIRIE CITY   N/A         43  27  53  CALM    30.03R
#SENECA         N/A         40  N/A N/A CALM    N/A
#SENECA 9NW     N/A         38  23  54  CALM    29.92R
$$

ORZ049-060610-
GRANDE RONDE VALLEY

CITY            SKY/WX      TMP DP  RH  WIND    PRES   REMARKS
LA GRANDE       CLEAR       46  21  37  NW12    29.99R WCI 40
#COVE           N/A         40  29  64  N1      30.00R
#COVE SCHOOL    N/A         39  27  62  CALM    29.97R
#ELGIN 3N       N/A         38  22  52  CALM    29.98R
#ELGIN 1E       N/A         43  26  51  CALM    N/A
#IMBLER SCHOOL  N/A         43  25  49  N2      29.96R
#ISLAND CITY 4N N/A         49  41  74  CALM    30.10R
#LADD CYN DOT   N/A         47  25  42  NE3     N/A
#LA GRANDE ELEM N/A         47  29  49  W2      30.03R
#UNION 1S       N/A         40  26  57  CALM    29.88R
$$

ORZ050-060610-
WALLOWA COUNTY

CITY            SKY/WX      TMP DP  RH  WIND    PRES   REMARKS
JOSEPH AIRPORT  PTCLDY      34  27  75  S6      30.00R
#ENTERPRISE HS  N/A         41  23  48  CALM    29.99R
#IMNAHA SCHOOL  N/A         54  26  34  CALM    29.96R
#IMNAHA 10S     N/A         47  26  44  SW3     29.97R
#JOSEPH 3N      N/A         35  18  49  CALM    30.01R
#JOSEPH 3W      N/A         33  25  72  SW2     29.83S
#LOSTINE        N/A         35  27  72  CALM    29.78R
#MT HOWARD 8000 N/A         26  18  71  N3      29.98R
#PROMISE 1S     N/A         38  25  59  CALM    30.11R
#SHEEP RDG 7000 N/A         31  19  61  CALM    29.98R
#WALLOWA SCHOOL N/A         40  25  55  CALM    30.88R



$$



USA.gov is the U.S. government's official web portal to all federal, state and local government web resources and services.